DW8485 Weather Reports


time (UTC)temp
C
wind
direction
speed
KPH
gust
KPH
rain 1hr
cm
rain 24hr
cm
rain mn
cm
humidity
%
barometer
mb
20260503215039 20 132 1.6 4.8 0.00 0.03 0.03 56 1016.5
20260503214538 20 144 3.2 4.8 0.00 0.03 0.03 56 1016.5
20260503214039 20 158 1.6 4.8 0.00 0.03 0.03 56 1016.5
20260503213539 20 155 1.6 4.8 0.00 0.03 0.03 56 1016.5
20260503213039 20 201 1.6 4.8 0.00 0.03 0.03 55 1016.6
20260503212538 20 156 1.6 4.8 0.00 0.03 0.03 55 1016.6
20260503211538 21 165 1.6 4.8 0.00 0.03 0.03 55 1016.6
20260503211039 21 179 1.6 8.0 0.00 0.03 0.03 56 1016.8
20260503210538 21 155 1.6 11.3 0.00 0.03 0.03 56 1016.8
20260503210038 21 163 4.8 9.7 0.00 0.03 0.03 54 1016.8
20260503205538 21 197 1.6 8.0 0.00 0.03 0.03 52 1016.9
20260503204538 22 139 0.0 11.3 0.00 0.03 0.03 51 1016.8
20260503204039 23 176 4.8 9.7 0.00 0.03 0.03 47 1016.8
20260503203039 23 238 3.2 4.8 0.00 0.03 0.03 48 1017.0
20260503202538 23 160 3.2 4.8 0.00 0.03 0.03 49 1017.0
20260503202039 23 148 1.6 4.8 0.00 0.03 0.03 49 1017.0
20260503201538 23 325 0.0 8.0 0.00 0.03 0.03 43 1017.0
20260503201039 23 329 3.2 9.7 0.00 0.03 0.03 44 1017.7
20260503200538 23 3 1.6 4.8 0.00 0.03 0.03 45 1017.7
20260503200038 23 11 3.2 4.8 0.00 0.03 0.03 42 1017.7
20260503195538 23 77 1.6 11.3 0.00 0.03 0.03 44 1017.7
20260503195039 23 121 1.6 4.8 0.00 0.03 0.03 44 1017.7
20260503193539 22 206 1.6 4.8 0.00 0.03 0.03 45 1017.7
20260503193039 22 309 3.2 12.9 0.00 0.03 0.03 44 1017.7
20260503192538 22 13 8.0 14.5 0.00 0.03 0.03 44 1017.7
20260503192039 22 281 6.4 12.9 0.00 0.05 0.03 43 1018.1
20260503191538 22 353 4.8 12.9 0.00 0.05 0.03 45 1018.1
20260503191039 22 336 1.6 8.0 0.00 0.08 0.03 46 1018.7
20260503190038 22 337 4.8 8.0 0.00 0.08 0.03 49 1018.7
20260503185538 22 339 3.2 9.7 0.00 0.08 0.03 45 1018.7
20260503185040 22 261 3.2 9.7 0.00 0.08 0.03 46 1018.7
20260503184538 22 197 4.8 9.7 0.00 0.08 0.03 48 1018.7
20260503184039 21 203 4.8 12.9 0.00 0.10 0.03 46 1018.7
20260503183538 22 344 6.4 11.3 0.00 0.10 0.03 45 1018.7
20260503182538 22 328 1.6 12.9 0.00 0.15 0.03 44 1019.3
20260503182039 22 324 9.7 16.1 0.00 0.18 0.03 47 1019.3
20260503181538 21 334 4.8 11.3 0.00 0.18 0.03 48 1019.3
20260503180538 21 343 6.4 11.3 0.00 0.20 0.03 45 1019.3
20260503180038 21 236 3.2 9.7 0.00 0.20 0.03 46 1019.3
20260503175537 21 343 4.8 9.7 0.00 0.20 0.03 46 1019.3
20260503175039 21 334 8.0 14.5 0.00 0.20 0.03 44 1019.3
20260503174538 21 40 6.4 14.5 0.00 0.20 0.03 43 1019.3
20260503174039 21 317 3.2 12.9 0.00 0.23 0.03 45 1019.3
20260503173539 21 208 3.2 9.7 0.00 0.23 0.03 47 1019.3
20260503173039 21 272 3.2 11.3 0.00 0.23 0.03 47 1019.3
20260503172538 21 263 3.2 8.0 0.00 0.25 0.03 49 1019.3
20260503171537 20 183 3.2 8.0 0.00 0.30 0.03 49 1019.3
20260503171038 20 355 3.2 9.7 0.00 0.33 0.03 49 1019.5
20260503170537 20 327 9.7 12.9 0.00 0.38 0.03 50 1019.5
20260503150537 15 340 4.8 12.9 0.00 0.56 0.03 66 1020.0
20260503130538 12 319 3.2 8.0 0.00 0.99 0.03 100 1019.3
20260503110537 7 339 0.0 0.0 0.03 1.22 0.03 93 1017.4
20260503081537 8 338 0.0 0.0 0.00 1.60 0.00 93 1016.1
20260503081037 8 338 0.0 0.0 0.00 1.63 0.00 93 1016.1
20260503080536 8 338 0.0 0.0 0.00 1.63 0.00 93 1016.1
20260503072038 9 338 0.0 0.0 0.00 1.75 0.00 93 1016.0
20260503071536 9 338 0.0 0.0 0.00 1.75 0.00 93 1016.0
20260503071037 9 338 0.0 0.0 0.00 1.78 0.00 93 1015.9
20260503070537 9 338 0.0 0.0 0.00 1.78 0.00 93 1015.9
20260503055037 10 338 0.0 0.0 0.00 1.85 0.00 93 1015.4
20260503054536 10 338 0.0 0.0 0.00 1.85 0.00 93 1015.4
20260503053537 10 338 0.0 0.0 0.00 1.85 0.00 93 1015.4
20260503053037 11 338 0.0 0.0 0.00 1.85 0.00 93 1015.4
20260503052037 11 338 0.0 0.0 0.00 1.85 0.00 94 1015.4
20260503051535 11 338 0.0 0.0 0.00 1.85 0.00 93 1015.4
20260503051037 11 338 0.0 0.0 0.00 1.85 0.00 93 1015.4
20260503050536 11 338 0.0 0.0 0.00 1.85 0.00 94 1015.4
20260503045536 11 338 0.0 0.0 0.00 1.88 0.00 94 1015.4
20260503045037 11 338 0.0 0.0 0.00 1.88 0.00 94 1015.1
20260503044536 11 338 0.0 0.0 0.00 1.88 0.00 94 1015.1
20260503044036 11 338 0.0 0.0 0.00 1.88 0.00 94 1015.1
20260503043538 11 338 0.0 0.0 0.00 1.88 0.00 94 1015.1
20260503043036 11 338 0.0 0.0 0.00 1.88 0.00 94 1015.1
20260503042536 12 338 0.0 0.0 0.00 1.88 0.00 94 1014.8
20260503042037 12 338 0.0 0.0 0.00 1.88 0.00 94 1014.8
20260503040536 12 338 0.0 0.0 0.00 1.88 0.00 94 1014.8
20260503040036 12 338 0.0 3.2 0.00 1.88 0.00 94 1014.8
20260503035536 12 338 1.6 3.2 0.00 1.88 1.88 94 1014.8
20260503035036 12 338 0.0 4.8 0.00 1.88 1.88 94 1014.8
20260503034536 12 338 3.2 4.8 0.00 1.88 1.88 94 1014.4
20260503034037 12 330 4.8 8.0 0.00 1.88 1.88 94 1014.4
20260503033536 12 346 1.6 4.8 0.00 1.88 1.88 94 1014.4
20260503033036 12 345 1.6 4.8 0.00 1.88 1.88 94 1014.4
20260503032037 12 346 0.0 0.0 0.00 1.88 1.88 94 1014.4
20260503031536 12 346 0.0 0.0 0.00 1.88 1.88 94 1014.1
20260503031037 12 346 0.0 0.0 0.00 1.88 1.88 94 1014.1
20260503030537 12 346 0.0 0.0 0.00 1.88 1.88 94 1014.1
20260503030035 12 346 0.0 0.0 0.00 1.88 1.88 94 1014.1
20260503025536 12 346 0.0 0.0 0.00 1.88 1.88 94 1013.3
20260503025037 12 346 0.0 0.0 0.00 1.88 1.88 94 1013.3
20260503024536 12 346 0.0 0.0 0.00 1.88 1.88 94 1013.3
20260503024036 12 346 0.0 0.0 0.00 1.88 1.88 94 1013.3
20260503023536 12 346 0.0 0.0 0.00 1.88 1.88 94 1013.3
20260503023036 12 346 0.0 4.8 0.00 1.88 1.88 94 1013.3
20260503022536 12 344 1.6 4.8 0.00 1.88 1.88 94 1013.3
20260503022036 12 344 1.6 3.2 0.00 1.88 1.88 94 1013.3
20260503021536 12 346 3.2 4.8 0.00 1.88 1.88 94 1013.3
20260503021037 12 47 4.8 11.3 0.00 1.88 1.88 94 1013.3
20260503020535 12 338 3.2 4.8 0.00 1.88 1.88 94 1013.3
20260503020036 12 8 1.6 4.8 0.00 1.88 1.88 94 1012.7
20260503015037 12 5 3.2 4.8 0.00 1.88 1.88 94 1012.7
20260503014536 12 5 1.6 4.8 0.00 1.88 1.88 94 1012.7
20260503014036 12 5 1.6 4.8 0.00 1.88 1.88 94 1012.7
20260503013536 12 350 3.2 4.8 0.00 1.88 1.88 94 1012.7
20260503012535 12 325 1.6 4.8 0.00 1.88 1.88 94 1012.7
20260503012037 12 15 1.6 3.2 0.00 1.88 1.88 94 1012.7
20260503011536 12 15 1.6 3.2 0.00 1.88 1.88 94 1012.7
20260503011037 12 15 1.6 4.8 0.00 1.88 1.88 94 1012.7
20260503010536 12 15 1.6 4.8 0.00 1.88 1.88 94 1012.7
20260503010035 12 13 0.0 4.8 0.00 1.88 1.88 94 1012.7
20260503005535 12 14 0.0 3.2 0.00 1.88 1.88 94 1012.6
20260503005036 12 13 1.6 4.8 0.00 1.88 1.88 94 1012.6
20260503004536 12 15 1.6 4.8 0.00 1.88 1.88 94 1011.8
20260503004036 12 355 3.2 4.8 0.00 1.88 1.88 94 1011.8
20260503003536 12 38 3.2 4.8 0.00 1.88 1.88 94 1011.8
20260503003037 12 349 1.6 4.8 0.00 1.88 1.88 94 1011.8
20260503002535 12 10 3.2 4.8 0.00 1.88 1.88 94 1011.8
20260503002037 12 34 3.2 4.8 0.00 1.88 1.88 94 1011.8
20260503001535 12 335 3.2 8.0 0.00 1.88 1.88 94 1011.8
20260503001036 12 2 3.2 4.8 0.00 1.88 1.88 94 1011.8
20260503000536 12 9 3.2 4.8 0.00 1.88 1.88 94 1011.8
20260503000035 12 20 1.6 4.8 0.00 1.88 1.88 94 1011.9
20260502235036 12 319 1.6 3.2 0.00 1.88 1.88 94 1011.6
20260502234535 12 319 1.6 4.8 0.00 1.88 1.88 94 1011.8
20260502234037 12 19 3.2 9.7 0.00 1.91 1.88 94 1011.8
20260502233037 13 6 4.8 9.7 0.00 1.91 1.88 94 1011.0
20260502232535 13 329 4.8 8.0 0.00 1.91 1.88 94 1011.0
20260502231535 13 15 3.2 8.0 0.00 1.91 1.88 94 1011.0
20260502231035 13 329 4.8 11.3 0.00 1.91 1.88 94 1011.0
20260502230536 13 336 4.8 11.3 0.00 1.93 1.88 94 1011.0
20260502230035 13 327 8.0 16.1 0.00 1.93 1.88 94 1011.0
20260502225535 13 341 3.2 9.7 0.00 1.93 1.88 94 1011.0
20260502225038 13 328 4.8 9.7 0.00 1.93 1.88 94 1011.0
20260502224535 13 11 1.6 4.8 0.00 1.93 1.88 94 1011.3
20260502224036 13 12 1.6 11.3 0.00 1.93 1.88 94 1011.3
20260502223535 13 330 6.4 11.3 0.00 1.93 1.88 94 1011.2
20260502223036 13 353 4.8 9.7 0.00 1.93 1.88 94 1011.1
20260502222536 13 355 6.4 14.5 0.00 1.93 1.88 95 1010.3
20260502221535 13 30 3.2 11.3 0.00 1.93 1.88 95 1010.3
20260502220535 13 348 4.8 8.0 0.00 1.93 1.88 95 1010.3
20260502220035 13 335 4.8 9.7 0.00 1.93 1.88 95 1010.3
20260502215535 13 339 8.0 14.5 0.00 1.93 1.88 95 1010.3